{"data":{"norad_id":66715,"intl_designator":"2025-276BB","name":"FLOCK 4H-12","alt_names":[],"object_type":"PAYLOAD","status":"ACTIVE","operator":null,"country":"US","launch_date":"2025-11-28","launch_site_code":"AFWTR","launch_vehicle":null,"mission":null,"orbit_class":"UNKNOWN","rcs_meters":null,"size_class":null,"mass_kg":null,"dimensions":null,"purposes":["earth_obs"],"wikipedia_slug":null,"has_3d_model":false,"image_url":null,"decayed_at":null,"tle_current":{"epoch":"2026-05-25T03:43:55.867008Z","epoch_age_seconds":58855,"freshness":"FRESH","line1":"1 66715U 25276BB  26145.15550772  .00006167  00000+0  28803-3 0  9990","line2":"2 66715  97.4192 219.2087 0003367  70.0199 290.1398 15.20165930 27242","mean_motion":15.2016593,"eccentricity":0.0003367,"inclination_deg":97.4192,"raan_deg":219.2087,"arg_perigee_deg":70.0199,"mean_anomaly_deg":290.1398,"bstar":0.00028803,"rev_number":2724,"period_min":94.726501336601,"perigee_km":503.02200218981,"apogee_km":507.65733537857,"semimajor_km":6883.4766687842,"source":"CELESTRAK","updated_at":"2026-05-25T13:38:13.347894Z"}}}